BAW579 LIML-EGLL

Flight info

Callsign BAW579
Flight time 2h 8m
Altitude 18000
Route PEPAG N851 ABESI/N0450F380 N851 UTAVO DCT ELMUR DCT RIPUS L613 HOC DCT LUL DCT RLP DCT ROTSI DCT KOTUN DCT NINAL DCT ABNUR DCT DIMAL DCT ALESO
Aircraft A319/M-SDE3FGHIRWY/LB1

Departure

Time 2026-05-07 15:35
Airport Milano Linate Airport (LIML)

Arrival

Time 2026-05-07 17:44
Airport London Heathrow Airport (EGLL)
Time Latitude Longitude Altitude Speed Heading
2026-05-07 15:35 45.38460 9.28290 2762 ft 208 kts 175°
2026-05-07 15:35 45.36976 9.28473 3411 ft 218 kts 175°
2026-05-07 15:35 45.35446 9.28661 4256 ft 222 kts 175°
2026-05-07 15:35 45.33894 9.28848 5124 ft 229 kts 176°
2026-05-07 15:36 45.32238 9.29031 5741 ft 246 kts 176°
2026-05-07 15:36 45.30507 9.29213 6608 ft 251 kts 176°
2026-05-07 15:36 45.28750 9.29397 7492 ft 257 kts 177°
2026-05-07 15:36 45.26881 9.29593 7892 ft 285 kts 177°
2026-05-07 15:37 45.24761 9.29817 7989 ft 324 kts 176°
2026-05-07 15:37 45.22395 9.30070 8041 ft 356 kts 176°
2026-05-07 15:37 45.19890 9.30343 8917 ft 358 kts 177°
2026-05-07 15:37 45.17369 9.30618 9618 ft 372 kts 177°
2026-05-07 15:38 45.14709 9.30904 9884 ft 395 kts 177°
2026-05-07 15:38 45.11894 9.31207 10121 ft 412 kts 177°
2026-05-07 15:38 45.10020 9.31410 11019 ft 403 kts 177°
2026-05-07 15:38 45.07331 9.31705 11608 ft 372 kts 177°
2026-05-07 15:39 45.04053 9.32069 11672 ft 352 kts 178°
2026-05-07 15:39 45.01612 9.32332 12150 ft 351 kts 178°
2026-05-07 15:39 44.99175 9.32588 12608 ft 353 kts 178°
2026-05-07 15:39 44.97520 9.32816 12891 ft 355 kts 173°
2026-05-07 15:40 44.95118 9.33727 13295 ft 361 kts 160°
2026-05-07 15:40 44.92911 9.35354 13708 ft 366 kts 147°
2026-05-07 15:40 44.90960 9.37673 14080 ft 370 kts 134°
2026-05-07 15:40 44.89398 9.40570 14458 ft 373 kts 123°
2026-05-07 15:41 44.88019 9.43694 14824 ft 376 kts 123°
2026-05-07 15:41 44.86633 9.46818 15178 ft 377 kts 123°
2026-05-07 15:41 44.85230 9.49957 15519 ft 379 kts 123°
2026-05-07 15:41 44.83818 9.53103 15885 ft 381 kts 123°
2026-05-07 15:42 44.82395 9.56273 16255 ft 383 kts 123°
2026-05-07 15:42 44.80970 9.59444 16605 ft 385 kts 123°
2026-05-07 15:42 44.79533 9.62637 16939 ft 387 kts 123°
2026-05-07 15:42 44.78088 9.65845 17281 ft 389 kts 123°
2026-05-07 15:43 44.76633 9.69074 17602 ft 392 kts 123°
2026-05-07 15:43 44.75171 9.72316 17900 ft 394 kts 124°
2026-05-07 15:43 44.73689 9.75599 17960 ft 401 kts 124°
2026-05-07 15:43 44.72180 9.78937 17960 ft 406 kts 124°
2026-05-07 15:44 44.70665 9.82287 17965 ft 407 kts 124°
2026-05-07 15:44 44.69143 9.85649 17970 ft 407 kts 124°
2026-05-07 15:44 44.67433 9.88804 17979 ft 406 kts 134°
2026-05-07 15:44 44.65476 9.91654 17982 ft 405 kts 136°
2026-05-07 15:45 44.63514 9.94488 17991 ft 405 kts 136°
2026-05-07 15:45 44.61551 9.97324 17992 ft 404 kts 136°
2026-05-07 15:45 44.59587 10.00159 17998 ft 405 kts 136°
2026-05-07 15:45 44.57613 10.03008 18021 ft 410 kts 136°
2026-05-07 15:46 44.53645 10.08730 18041 ft 408 kts 136°
2026-05-07 15:46 44.51688 10.11606 18037 ft 408 kts 132°
2026-05-07 15:46 44.50301 10.15055 18034 ft 410 kts 108°
2026-05-07 15:47 44.49994 10.18998 18033 ft 409 kts 83°
2026-05-07 15:47 44.50820 10.22774 18027 ft 406 kts 59°
2026-05-07 15:47 44.52597 10.25706 18007 ft 399 kts 35°
2026-05-07 15:47 44.55052 10.27383 17987 ft 391 kts 10°
2026-05-07 15:48 44.57753 10.27481 17982 ft 382 kts 345°
2026-05-07 15:48 44.60142 10.26020 17975 ft 374 kts 321°
2026-05-07 15:48 44.61988 10.23540 17966 ft 372 kts 311°
2026-05-07 15:48 44.63780 10.20907 17962 ft 373 kts 311°
2026-05-07 15:49 44.65576 10.18261 17960 ft 374 kts 311°
2026-05-07 15:49 44.67397 10.15574 17961 ft 375 kts 311°
2026-05-07 15:49 44.69171 10.12952 17968 ft 375 kts 311°
2026-05-07 15:49 44.70995 10.10254 17968 ft 376 kts 311°
2026-05-07 15:50 44.72769 10.07629 17970 ft 376 kts 311°
2026-05-07 15:50 44.74567 10.04965 17968 ft 376 kts 311°
2026-05-07 15:50 44.76368 10.02297 17969 ft 376 kts 311°
2026-05-07 15:50 44.78168 9.99629 17977 ft 376 kts 311°
2026-05-07 15:51 44.79971 9.96955 17963 ft 376 kts 311°
2026-05-07 15:51 44.81772 9.94282 17960 ft 376 kts 311°
2026-05-07 15:51 44.83607 9.91646 17953 ft 377 kts 316°
2026-05-07 15:51 44.85819 9.89638 17949 ft 381 kts 330°
2026-05-07 15:52 44.88185 9.87941 17949 ft 381 kts 330°
2026-05-07 15:52 44.90551 9.86249 17952 ft 381 kts 330°
2026-05-07 15:52 44.92915 9.84558 17951 ft 381 kts 330°
2026-05-07 15:52 44.95286 9.82855 17950 ft 381 kts 330°
2026-05-07 15:53 44.97645 9.81152 17955 ft 381 kts 330°
2026-05-07 15:53 45.00008 9.79444 17956 ft 381 kts 330°
2026-05-07 15:53 45.02372 9.77737 17965 ft 381 kts 330°
2026-05-07 15:53 45.04736 9.76033 17965 ft 381 kts 330°
2026-05-07 15:54 45.07097 9.74331 17967 ft 381 kts 330°
2026-05-07 15:54 45.09467 9.72620 17969 ft 381 kts 330°
2026-05-07 15:54 45.11830 9.70913 17967 ft 381 kts 330°
2026-05-07 15:54 45.14190 9.69204 17969 ft 381 kts 330°
2026-05-07 15:55 45.16553 9.67491 17971 ft 381 kts 330°
2026-05-07 15:55 45.18915 9.65780 17971 ft 381 kts 330°
2026-05-07 15:55 45.21273 9.64068 17970 ft 381 kts 330°
2026-05-07 15:55 45.23634 9.62354 17967 ft 381 kts 330°
2026-05-07 15:56 45.25997 9.60636 17994 ft 381 kts 330°
2026-05-07 15:56 45.28359 9.58917 18001 ft 381 kts 330°
2026-05-07 15:56 45.30718 9.57198 18010 ft 381 kts 330°
2026-05-07 15:56 45.33077 9.55476 18025 ft 381 kts 330°
2026-05-07 15:57 45.35439 9.53751 18027 ft 381 kts 330°
2026-05-07 15:57 45.37794 9.52025 18037 ft 381 kts 330°
2026-05-07 15:57 45.40148 9.50296 18044 ft 381 kts 330°
2026-05-07 15:57 45.42504 9.48568 18056 ft 381 kts 330°
2026-05-07 15:58 45.44862 9.46841 18057 ft 381 kts 330°
2026-05-07 15:58 45.47226 9.45107 18062 ft 381 kts 330°
2026-05-07 15:58 45.49583 9.43380 18065 ft 381 kts 330°
2026-05-07 15:58 45.51940 9.41649 18060 ft 381 kts 330°
2026-05-07 15:59 45.54301 9.39913 18057 ft 381 kts 330°
2026-05-07 15:59 45.56630 9.38196 18061 ft 382 kts 330°
2026-05-07 15:59 45.58986 9.36455 18062 ft 382 kts 330°
2026-05-07 15:59 45.61345 9.34713 18052 ft 382 kts 330°
2026-05-07 16:00 45.63737 9.32946 18037 ft 382 kts 330°
2026-05-07 16:00 45.66069 9.31222 18040 ft 382 kts 330°
2026-05-07 16:00 45.68428 9.29476 18018 ft 382 kts 330°
2026-05-07 16:00 45.70787 9.27726 18012 ft 382 kts 330°
2026-05-07 16:01 45.73147 9.25974 17997 ft 382 kts 330°
2026-05-07 16:01 45.75510 9.24220 17994 ft 382 kts 330°
2026-05-07 16:01 45.77872 9.22470 17986 ft 382 kts 330°
2026-05-07 16:01 45.80238 9.20717 17968 ft 382 kts 330°
2026-05-07 16:02 45.82601 9.18963 17971 ft 382 kts 330°
2026-05-07 16:02 45.84958 9.17205 17965 ft 382 kts 330°
2026-05-07 16:02 45.87316 9.15443 17974 ft 382 kts 330°
2026-05-07 16:02 45.89679 9.13674 17967 ft 382 kts 330°
2026-05-07 16:03 45.92037 9.11905 17969 ft 382 kts 330°
2026-05-07 16:03 45.94397 9.10134 17983 ft 383 kts 330°
2026-05-07 16:03 45.96777 9.08394 17981 ft 385 kts 334°
2026-05-07 16:03 45.99314 9.07152 17974 ft 387 kts 345°
2026-05-07 16:04 46.01973 9.06564 17981 ft 388 kts 352°
2026-05-07 16:04 46.04658 9.06139 17975 ft 388 kts 352°
2026-05-07 16:04 46.07349 9.05703 17977 ft 388 kts 351°
2026-05-07 16:04 46.10035 9.05264 17975 ft 389 kts 351°
2026-05-07 16:05 46.12725 9.04819 17979 ft 389 kts 351°
2026-05-07 16:05 46.15423 9.04373 17977 ft 389 kts 351°
2026-05-07 16:05 46.18115 9.03951 17971 ft 389 kts 352°
2026-05-07 16:05 46.20815 9.03570 17974 ft 390 kts 352°
2026-05-07 16:06 46.23476 9.03221 17975 ft 390 kts 353°
2026-05-07 16:06 46.26215 9.02873 17974 ft 390 kts 353°
2026-05-07 16:06 46.28921 9.02524 17975 ft 390 kts 353°
2026-05-07 16:06 46.31624 9.02171 17974 ft 390 kts 353°
2026-05-07 16:07 46.34328 9.01815 17973 ft 390 kts 353°
2026-05-07 16:07 46.37035 9.01460 17974 ft 391 kts 353°
2026-05-07 16:07 46.39746 9.01101 17978 ft 391 kts 353°
2026-05-07 16:07 46.42456 9.00735 17975 ft 391 kts 352°
2026-05-07 16:08 46.45166 9.00371 17979 ft 391 kts 352°
2026-05-07 16:08 46.47877 9.00006 17974 ft 391 kts 353°
2026-05-07 16:08 46.50590 8.99643 17983 ft 392 kts 353°
2026-05-07 16:08 46.53305 8.99278 17987 ft 392 kts 353°
2026-05-07 16:09 46.56024 8.98908 17991 ft 392 kts 353°
2026-05-07 16:09 46.58706 8.98542 17995 ft 392 kts 353°
2026-05-07 16:09 46.61419 8.98173 17992 ft 392 kts 353°
2026-05-07 16:09 46.64134 8.97804 17995 ft 392 kts 353°
2026-05-07 16:10 46.66850 8.97436 17999 ft 392 kts 353°
2026-05-07 16:10 46.69570 8.97072 18004 ft 393 kts 353°
2026-05-07 16:10 46.72289 8.96707 18004 ft 393 kts 353°
2026-05-07 16:10 46.75009 8.96338 18004 ft 392 kts 353°
2026-05-07 16:11 46.77730 8.95969 18012 ft 392 kts 353°
2026-05-07 16:11 46.80452 8.95601 18017 ft 393 kts 353°
2026-05-07 16:11 46.83170 8.95232 18010 ft 392 kts 353°
2026-05-07 16:11 46.85888 8.94860 18002 ft 392 kts 352°
2026-05-07 16:12 46.88611 8.94482 18019 ft 393 kts 353°
2026-05-07 16:12 46.91333 8.94103 18013 ft 393 kts 353°
2026-05-07 16:12 46.94059 8.93721 18016 ft 393 kts 353°
2026-05-07 16:12 46.96786 8.93344 18019 ft 394 kts 353°
2026-05-07 16:13 46.99513 8.92973 18027 ft 394 kts 353°
2026-05-07 16:13 47.02243 8.92601 18025 ft 394 kts 353°
2026-05-07 16:13 47.04969 8.92229 18029 ft 393 kts 353°
2026-05-07 16:13 47.07696 8.91856 18031 ft 393 kts 353°
2026-05-07 16:14 47.10390 8.91238 18025 ft 391 kts 343°
2026-05-07 16:14 47.12898 8.89764 18027 ft 388 kts 329°
2026-05-07 16:14 47.15095 8.87493 18024 ft 385 kts 316°
2026-05-07 16:14 47.16868 8.84566 18023 ft 382 kts 303°
2026-05-07 16:15 47.18130 8.81150 18025 ft 380 kts 290°
2026-05-07 16:15 47.19057 8.77522 18024 ft 380 kts 289°
2026-05-07 16:15 47.19980 8.73888 18023 ft 380 kts 289°
2026-05-07 16:15 47.20902 8.70274 18024 ft 380 kts 289°
2026-05-07 16:16 47.21826 8.66643 18026 ft 379 kts 289°
2026-05-07 16:16 47.22750 8.63002 18029 ft 380 kts 289°
2026-05-07 16:16 47.23672 8.59364 18029 ft 380 kts 289°
2026-05-07 16:16 47.24591 8.55726 18025 ft 380 kts 289°
2026-05-07 16:17 47.25511 8.52082 18030 ft 380 kts 289°
2026-05-07 16:17 47.26432 8.48438 18030 ft 380 kts 289°
2026-05-07 16:17 47.27340 8.44841 18028 ft 379 kts 289°
2026-05-07 16:17 47.28255 8.41201 18029 ft 379 kts 289°
2026-05-07 16:18 47.29172 8.37556 18030 ft 379 kts 289°
2026-05-07 16:18 47.30084 8.33911 18028 ft 379 kts 289°
2026-05-07 16:18 47.30997 8.30259 18025 ft 379 kts 289°
2026-05-07 16:18 47.31907 8.26616 18024 ft 379 kts 289°
2026-05-07 16:19 47.32817 8.22964 18025 ft 379 kts 288°
2026-05-07 16:19 47.33724 8.19318 18024 ft 379 kts 288°
2026-05-07 16:19 47.34632 8.15663 18024 ft 379 kts 288°
2026-05-07 16:19 47.35534 8.12016 18020 ft 379 kts 288°
2026-05-07 16:20 47.36437 8.08356 18021 ft 379 kts 288°
2026-05-07 16:20 47.37338 8.04699 18023 ft 379 kts 288°
2026-05-07 16:20 47.38238 8.01047 18020 ft 379 kts 288°
2026-05-07 16:20 47.39137 7.97399 18024 ft 379 kts 288°
2026-05-07 16:21 47.40035 7.93744 18024 ft 378 kts 288°
2026-05-07 16:21 47.40930 7.90094 18027 ft 378 kts 288°
2026-05-07 16:21 47.41825 7.86442 18024 ft 378 kts 288°
2026-05-07 16:21 47.42514 7.83632 18017 ft 378 kts 288°
2026-05-07 16:22 47.43409 7.79964 18023 ft 378 kts 288°
2026-05-07 16:22 47.44295 7.76308 18019 ft 378 kts 288°
2026-05-07 16:22 47.44880 7.73889 18029 ft 378 kts 288°
2026-05-07 16:22 47.45767 7.70228 18021 ft 378 kts 288°
2026-05-07 16:23 47.46640 7.66549 18028 ft 378 kts 285°
2026-05-07 16:23 47.47290 7.62801 18020 ft 377 kts 282°
2026-05-07 16:23 47.47920 7.59019 18028 ft 378 kts 282°
2026-05-07 16:23 47.48548 7.55256 18022 ft 378 kts 282°
2026-05-07 16:24 47.49181 7.51483 18029 ft 378 kts 282°
2026-05-07 16:24 47.49813 7.47711 18015 ft 378 kts 282°
2026-05-07 16:24 47.50442 7.43934 18019 ft 378 kts 282°
2026-05-07 16:24 47.51071 7.40153 18027 ft 379 kts 282°
2026-05-07 16:25 47.51698 7.36368 18021 ft 379 kts 282°
2026-05-07 16:25 47.52324 7.32586 18023 ft 378 kts 282°
2026-05-07 16:25 47.52947 7.28808 18017 ft 379 kts 282°
2026-05-07 16:25 47.53571 7.25022 18018 ft 379 kts 282°
2026-05-07 16:26 47.54192 7.21238 18022 ft 379 kts 282°
2026-05-07 16:26 47.54813 7.17442 18021 ft 379 kts 282°
2026-05-07 16:26 47.55432 7.13653 18016 ft 379 kts 282°
2026-05-07 16:26 47.56051 7.09861 18022 ft 379 kts 282°
2026-05-07 16:27 47.56666 7.06067 18021 ft 379 kts 282°
2026-05-07 16:27 47.57282 7.02266 18020 ft 379 kts 282°
2026-05-07 16:27 47.57901 6.98463 18016 ft 380 kts 282°
2026-05-07 16:27 47.58518 6.94666 18020 ft 380 kts 282°
2026-05-07 16:28 47.59100 6.91080 18021 ft 380 kts 282°
2026-05-07 16:28 47.59714 6.87280 18021 ft 380 kts 282°
2026-05-07 16:28 47.60328 6.83466 18019 ft 380 kts 282°
2026-05-07 16:28 47.60937 6.79659 18016 ft 380 kts 282°
2026-05-07 16:29 47.61544 6.75847 18024 ft 380 kts 282°
2026-05-07 16:29 47.62150 6.72035 18023 ft 380 kts 282°
2026-05-07 16:29 47.62752 6.68229 18024 ft 380 kts 282°
2026-05-07 16:29 47.63354 6.64412 18022 ft 380 kts 282°
2026-05-07 16:30 47.63957 6.60600 18028 ft 380 kts 282°
2026-05-07 16:30 47.64562 6.56789 18029 ft 380 kts 282°
2026-05-07 16:30 47.65167 6.52982 18029 ft 380 kts 282°
2026-05-07 16:30 47.65769 6.49169 18032 ft 380 kts 282°
2026-05-07 16:31 47.66369 6.45356 18037 ft 379 kts 282°
2026-05-07 16:31 47.66967 6.41538 18039 ft 379 kts 282°
2026-05-07 16:31 47.67562 6.37726 18036 ft 379 kts 282°
2026-05-07 16:31 47.68154 6.33913 18038 ft 379 kts 282°
2026-05-07 16:32 47.68746 6.30098 18040 ft 379 kts 282°
2026-05-07 16:32 47.69414 6.26307 18036 ft 380 kts 285°
2026-05-07 16:32 47.70186 6.22552 18034 ft 380 kts 287°
2026-05-07 16:32 47.71012 6.18828 18035 ft 380 kts 287°
2026-05-07 16:33 47.71852 6.15111 18036 ft 380 kts 287°
2026-05-07 16:33 47.72686 6.11385 18036 ft 380 kts 287°
2026-05-07 16:33 47.73502 6.07647 18027 ft 380 kts 287°
2026-05-07 16:33 47.74301 6.03910 18033 ft 380 kts 286°
2026-05-07 16:34 47.75091 6.00160 18037 ft 380 kts 286°
2026-05-07 16:34 47.75875 5.96414 18035 ft 380 kts 286°
2026-05-07 16:34 47.76650 5.92705 18032 ft 380 kts 286°
2026-05-07 16:34 47.77447 5.88907 18033 ft 380 kts 286°
2026-05-07 16:35 47.78236 5.85151 18035 ft 380 kts 286°
2026-05-07 16:35 47.79012 5.81447 18033 ft 380 kts 286°
2026-05-07 16:35 47.79795 5.77697 18034 ft 380 kts 286°
2026-05-07 16:35 47.80575 5.73934 18036 ft 380 kts 286°
2026-05-07 16:36 47.81350 5.70183 18038 ft 380 kts 286°
2026-05-07 16:36 47.82129 5.66413 18034 ft 380 kts 286°
2026-05-07 16:36 47.82907 5.62653 18036 ft 380 kts 286°
2026-05-07 16:36 47.83684 5.58892 18037 ft 380 kts 286°
2026-05-07 16:37 47.84459 5.55133 18039 ft 380 kts 286°
2026-05-07 16:37 47.85233 5.51371 18039 ft 380 kts 286°
2026-05-07 16:37 47.86009 5.47606 18036 ft 380 kts 286°
2026-05-07 16:37 47.86783 5.43841 18038 ft 380 kts 286°
2026-05-07 16:38 47.87554 5.40074 18042 ft 380 kts 286°
2026-05-07 16:38 47.88320 5.36307 18040 ft 380 kts 286°
2026-05-07 16:38 47.89089 5.32535 18040 ft 380 kts 286°
2026-05-07 16:38 47.89863 5.28778 18038 ft 380 kts 288°
2026-05-07 16:39 47.90943 5.25179 18042 ft 381 kts 299°
2026-05-07 16:39 47.92455 5.21953 18042 ft 381 kts 309°
2026-05-07 16:39 47.94247 5.19009 18040 ft 382 kts 311°
2026-05-07 16:39 47.96009 5.16122 18041 ft 382 kts 311°
2026-05-07 16:40 47.97792 5.13182 18043 ft 382 kts 311°
2026-05-07 16:40 47.99568 5.10242 18042 ft 382 kts 311°
2026-05-07 16:40 48.01347 5.07294 18039 ft 382 kts 311°
2026-05-07 16:40 48.03120 5.04350 18041 ft 382 kts 311°
2026-05-07 16:41 48.04897 5.01402 18044 ft 382 kts 311°
2026-05-07 16:41 48.06675 4.98455 18044 ft 382 kts 311°
2026-05-07 16:41 48.08450 4.95515 18040 ft 382 kts 311°
2026-05-07 16:41 48.10235 4.92557 18045 ft 382 kts 311°
2026-05-07 16:42 48.12012 4.89608 18045 ft 382 kts 311°
2026-05-07 16:42 48.13789 4.86663 18044 ft 382 kts 311°
2026-05-07 16:42 48.15569 4.83703 18042 ft 382 kts 311°
2026-05-07 16:42 48.17344 4.80741 18041 ft 382 kts 311°
2026-05-07 16:43 48.19117 4.77781 18044 ft 382 kts 311°
2026-05-07 16:43 48.20892 4.74811 18047 ft 382 kts 311°
2026-05-07 16:43 48.22661 4.71841 18041 ft 382 kts 311°
2026-05-07 16:43 48.24431 4.68870 18041 ft 382 kts 311°
2026-05-07 16:44 48.26205 4.65895 18048 ft 382 kts 311°
2026-05-07 16:44 48.27975 4.62925 18044 ft 382 kts 311°
2026-05-07 16:44 48.29743 4.59955 18043 ft 381 kts 311°
2026-05-07 16:44 48.31488 4.57016 18042 ft 381 kts 311°
2026-05-07 16:45 48.33253 4.54040 18045 ft 381 kts 311°
2026-05-07 16:45 48.35015 4.51067 18049 ft 381 kts 311°
2026-05-07 16:45 48.36783 4.48082 18047 ft 381 kts 311°
2026-05-07 16:45 48.38545 4.45107 18048 ft 381 kts 311°
2026-05-07 16:46 48.40302 4.42136 18052 ft 381 kts 311°
2026-05-07 16:46 48.42060 4.39153 18051 ft 381 kts 311°
2026-05-07 16:46 48.43820 4.36165 18050 ft 380 kts 311°
2026-05-07 16:46 48.45575 4.33186 18051 ft 380 kts 311°
2026-05-07 16:47 48.47328 4.30209 17941 ft 378 kts 310°
2026-05-07 16:47 48.49074 4.27240 18039 ft 379 kts 310°
2026-05-07 16:47 48.50821 4.24260 18053 ft 379 kts 309°
2026-05-07 16:47 48.52565 4.21280 18061 ft 379 kts 309°
2026-05-07 16:48 48.54309 4.18300 18063 ft 379 kts 309°
2026-05-07 16:48 48.56051 4.15321 18062 ft 378 kts 309°
2026-05-07 16:48 48.57791 4.12345 18067 ft 378 kts 309°
2026-05-07 16:48 48.59533 4.09363 18071 ft 378 kts 309°
2026-05-07 16:49 48.61270 4.06382 18063 ft 377 kts 309°
2026-05-07 16:49 48.62998 4.03403 18065 ft 377 kts 309°
2026-05-07 16:49 48.64729 4.00419 18063 ft 377 kts 309°
2026-05-07 16:49 48.66456 3.97443 18060 ft 377 kts 309°
2026-05-07 16:50 48.68164 3.94501 18057 ft 377 kts 309°
2026-05-07 16:50 48.69896 3.91515 18053 ft 377 kts 309°
2026-05-07 16:50 48.71626 3.88531 18054 ft 377 kts 309°
2026-05-07 16:50 48.73400 3.85542 18055 ft 377 kts 311°
2026-05-07 16:51 48.75217 3.82727 18054 ft 378 kts 313°
2026-05-07 16:51 48.77110 3.79952 18053 ft 378 kts 314°
2026-05-07 16:51 48.79020 3.77214 18051 ft 378 kts 315°
2026-05-07 16:51 48.80932 3.74468 18049 ft 378 kts 314°
2026-05-07 16:52 48.82834 3.71701 18050 ft 378 kts 314°
2026-05-07 16:52 48.84716 3.68921 18049 ft 378 kts 314°
2026-05-07 16:52 48.86593 3.66118 18047 ft 378 kts 313°
2026-05-07 16:52 48.88466 3.63306 18048 ft 378 kts 313°
2026-05-07 16:53 48.90336 3.60497 18045 ft 378 kts 313°
2026-05-07 16:53 48.92209 3.57681 18045 ft 378 kts 313°
2026-05-07 16:53 48.94078 3.54869 18045 ft 378 kts 313°
2026-05-07 16:53 48.95951 3.52048 18044 ft 378 kts 313°
2026-05-07 16:54 48.97817 3.49232 18042 ft 378 kts 313°
2026-05-07 16:54 48.99688 3.46409 18048 ft 378 kts 313°
2026-05-07 16:54 49.01562 3.43585 18045 ft 379 kts 313°
2026-05-07 16:54 49.03436 3.40764 18039 ft 379 kts 313°
2026-05-07 16:55 49.05318 3.37922 18076 ft 381 kts 314°
2026-05-07 16:55 49.07194 3.35084 18045 ft 379 kts 314°
2026-05-07 16:55 49.09069 3.32248 18035 ft 380 kts 314°
2026-05-07 16:55 49.10942 3.29408 18033 ft 380 kts 314°
2026-05-07 16:56 49.12817 3.26559 18038 ft 380 kts 314°
2026-05-07 16:56 49.14693 3.23708 18036 ft 381 kts 314°
2026-05-07 16:56 49.18449 3.17990 18041 ft 381 kts 314°
2026-05-07 16:57 49.20323 3.15134 18044 ft 381 kts 314°
2026-05-07 16:57 49.22198 3.12270 18044 ft 381 kts 314°
2026-05-07 16:57 49.24071 3.09408 18047 ft 381 kts 314°
2026-05-07 16:57 49.25946 3.06543 18049 ft 381 kts 314°
2026-05-07 16:58 49.27822 3.03672 18055 ft 381 kts 314°
2026-05-07 16:58 49.29692 3.00807 18051 ft 381 kts 314°
2026-05-07 16:58 49.31563 2.97936 18051 ft 380 kts 314°
2026-05-07 16:58 49.33430 2.95068 18051 ft 380 kts 314°
2026-05-07 16:59 49.35300 2.92187 18059 ft 381 kts 314°
2026-05-07 16:59 49.37166 2.89309 18057 ft 380 kts 314°
2026-05-07 16:59 49.39029 2.86435 18060 ft 380 kts 314°
2026-05-07 16:59 49.40892 2.83560 18064 ft 380 kts 314°
2026-05-07 17:00 49.42732 2.80721 18058 ft 379 kts 314°
2026-05-07 17:00 49.44594 2.77845 18054 ft 379 kts 314°
2026-05-07 17:00 49.46453 2.74971 18061 ft 379 kts 314°
2026-05-07 17:00 49.48334 2.72056 18060 ft 379 kts 314°
2026-05-07 17:01 49.50190 2.69178 18058 ft 379 kts 314°
2026-05-07 17:01 49.52042 2.66298 18055 ft 378 kts 314°
2026-05-07 17:01 49.53889 2.63417 18054 ft 378 kts 313°
2026-05-07 17:01 49.55742 2.60520 18053 ft 378 kts 314°
2026-05-07 17:02 49.57566 2.57675 18055 ft 378 kts 314°
2026-05-07 17:02 49.59413 2.54792 18059 ft 378 kts 314°
2026-05-07 17:02 49.61369 2.52066 18050 ft 379 kts 321°
2026-05-07 17:02 49.63477 2.49615 18051 ft 380 kts 322°
2026-05-07 17:03 49.65584 2.47152 18053 ft 380 kts 321°
2026-05-07 17:03 49.67685 2.44686 18049 ft 380 kts 321°
2026-05-07 17:03 49.69784 2.42218 18052 ft 380 kts 321°
2026-05-07 17:03 49.71883 2.39751 18046 ft 380 kts 321°
2026-05-07 17:04 49.73987 2.37273 18050 ft 380 kts 321°
2026-05-07 17:04 49.76085 2.34796 18053 ft 380 kts 321°
2026-05-07 17:04 49.78188 2.32319 18051 ft 380 kts 321°
2026-05-07 17:04 49.80292 2.29840 18053 ft 380 kts 321°
2026-05-07 17:05 49.82391 2.27365 18050 ft 380 kts 322°
2026-05-07 17:05 49.84488 2.24883 18056 ft 380 kts 322°
2026-05-07 17:05 49.86585 2.22396 18051 ft 379 kts 322°
2026-05-07 17:05 49.88683 2.19907 18050 ft 379 kts 322°
2026-05-07 17:06 49.90779 2.17420 18051 ft 379 kts 322°
2026-05-07 17:06 49.92879 2.14931 18051 ft 380 kts 322°
2026-05-07 17:06 49.94267 2.13284 18050 ft 379 kts 322°
2026-05-07 17:06 49.96361 2.10789 18050 ft 379 kts 322°
2026-05-07 17:07 49.98456 2.08287 18048 ft 379 kts 322°
2026-05-07 17:07 50.00550 2.05787 18054 ft 379 kts 322°
2026-05-07 17:07 50.02641 2.03287 18054 ft 379 kts 322°
2026-05-07 17:07 50.04733 2.00780 18052 ft 379 kts 322°
2026-05-07 17:08 50.06822 1.98277 18056 ft 379 kts 322°
2026-05-07 17:08 50.08914 1.95773 18051 ft 379 kts 322°
2026-05-07 17:08 50.11004 1.93268 18054 ft 379 kts 322°
2026-05-07 17:08 50.13090 1.90756 18052 ft 379 kts 322°
2026-05-07 17:09 50.15177 1.88239 18050 ft 379 kts 322°
2026-05-07 17:09 50.17242 1.85684 18046 ft 379 kts 318°
2026-05-07 17:09 50.19141 1.82840 18052 ft 378 kts 315°
2026-05-07 17:09 50.21025 1.79973 18058 ft 378 kts 315°
2026-05-07 17:10 50.22908 1.77106 18056 ft 378 kts 315°
2026-05-07 17:10 50.24788 1.74243 18058 ft 378 kts 315°
2026-05-07 17:10 50.26673 1.71374 18060 ft 378 kts 315°
2026-05-07 17:10 50.28552 1.68510 18062 ft 377 kts 315°
2026-05-07 17:11 50.30430 1.65643 18062 ft 377 kts 315°
2026-05-07 17:11 50.32307 1.62769 18065 ft 377 kts 315°
2026-05-07 17:11 50.34180 1.59894 18065 ft 377 kts 315°
2026-05-07 17:11 50.36050 1.57019 18066 ft 377 kts 315°
2026-05-07 17:12 50.37923 1.54136 18064 ft 377 kts 315°
2026-05-07 17:12 50.39794 1.51255 18063 ft 377 kts 315°
2026-05-07 17:12 50.41661 1.48384 18061 ft 377 kts 315°
2026-05-07 17:12 50.43535 1.45496 18062 ft 377 kts 314°
2026-05-07 17:13 50.45400 1.42612 18060 ft 377 kts 314°
2026-05-07 17:13 50.47269 1.39716 18060 ft 377 kts 314°
2026-05-07 17:13 50.49139 1.36825 18057 ft 377 kts 314°
2026-05-07 17:13 50.50973 1.33892 18060 ft 377 kts 313°
2026-05-07 17:14 50.52767 1.30883 18053 ft 377 kts 311°
2026-05-07 17:14 50.54535 1.27841 18051 ft 377 kts 311°
2026-05-07 17:14 50.56294 1.24789 18052 ft 377 kts 311°
2026-05-07 17:14 50.58060 1.21743 18061 ft 377 kts 312°
2026-05-07 17:15 50.59873 1.18760 18053 ft 377 kts 313°
2026-05-07 17:15 50.61725 1.15833 18057 ft 377 kts 314°
2026-05-07 17:15 50.63591 1.12939 18056 ft 377 kts 314°
2026-05-07 17:15 50.65441 1.10076 18063 ft 377 kts 314°
2026-05-07 17:16 50.67309 1.07167 18058 ft 377 kts 314°
2026-05-07 17:16 50.69170 1.04244 18060 ft 377 kts 314°
2026-05-07 17:16 50.71023 1.01310 18069 ft 377 kts 314°
2026-05-07 17:16 50.72871 0.98372 18069 ft 377 kts 314°
2026-05-07 17:17 50.74716 0.95430 18065 ft 377 kts 313°
2026-05-07 17:17 50.76562 0.92482 18068 ft 377 kts 313°
2026-05-07 17:17 50.78406 0.89534 18071 ft 377 kts 313°
2026-05-07 17:17 50.80255 0.86578 18072 ft 378 kts 313°
2026-05-07 17:18 50.82099 0.83628 18072 ft 378 kts 313°
2026-05-07 17:18 50.83944 0.80673 18083 ft 378 kts 313°
2026-05-07 17:18 50.85791 0.77715 18078 ft 378 kts 313°
2026-05-07 17:18 50.87642 0.74748 18079 ft 378 kts 313°
2026-05-07 17:19 50.89484 0.71795 18073 ft 371 kts 313°
2026-05-07 17:19 50.91273 0.68926 18078 ft 364 kts 313°
2026-05-07 17:19 50.93035 0.66092 17805 ft 358 kts 313°
2026-05-07 17:19 50.94780 0.63284 17257 ft 355 kts 313°
2026-05-07 17:20 50.96513 0.60486 16963 ft 356 kts 313°
2026-05-07 17:20 50.98242 0.57685 16546 ft 355 kts 313°
2026-05-07 17:20 50.99967 0.54894 16241 ft 354 kts 313°
2026-05-07 17:20 51.01686 0.52109 15938 ft 352 kts 313°
2026-05-07 17:21 51.03394 0.49331 15631 ft 350 kts 313°
2026-05-07 17:21 51.05092 0.46570 15163 ft 349 kts 313°
2026-05-07 17:21 51.06780 0.43826 14713 ft 345 kts 313°
2026-05-07 17:21 51.08477 0.41145 14279 ft 344 kts 315°
2026-05-07 17:22 51.10205 0.38512 13866 ft 342 kts 315°
2026-05-07 17:22 51.11932 0.35920 13440 ft 340 kts 315°
2026-05-07 17:22 51.13612 0.33400 12981 ft 324 kts 315°
2026-05-07 17:22 51.15211 0.30987 12533 ft 310 kts 315°
2026-05-07 17:23 51.16742 0.28661 12045 ft 300 kts 315°
2026-05-07 17:23 51.18228 0.26389 11534 ft 292 kts 315°
2026-05-07 17:23 51.19679 0.24161 11041 ft 287 kts 315°
2026-05-07 17:23 51.21109 0.21960 10558 ft 285 kts 315°
2026-05-07 17:24 51.22531 0.19776 10260 ft 282 kts 315°
2026-05-07 17:24 51.23941 0.17607 9774 ft 280 kts 315°
2026-05-07 17:24 51.25341 0.15451 9226 ft 279 kts 315°
2026-05-07 17:24 51.26739 0.13299 8540 ft 279 kts 315°
2026-05-07 17:25 51.28128 0.11152 8114 ft 274 kts 315°
2026-05-07 17:25 51.29478 0.09064 8019 ft 268 kts 315°
2026-05-07 17:25 51.30760 0.07088 8033 ft 248 kts 315°
2026-05-07 17:25 51.31991 0.05194 8036 ft 244 kts 315°
2026-05-07 17:26 51.33043 0.03080 7762 ft 244 kts 298°
2026-05-07 17:26 51.33694 0.00539 7161 ft 256 kts 279°
2026-05-07 17:26 51.33841 -0.02388 7026 ft 269 kts 272°
2026-05-07 17:26 51.33899 -0.05370 7026 ft 262 kts 271°
2026-05-07 17:27 51.33944 -0.08173 7036 ft 245 kts 271°
2026-05-07 17:27 51.33983 -0.10871 7035 ft 241 kts 271°
2026-05-07 17:27 51.34019 -0.13545 6995 ft 240 kts 271°
2026-05-07 17:27 51.34067 -0.16214 7018 ft 240 kts 271°
2026-05-07 17:28 51.34124 -0.18884 7027 ft 240 kts 271°
2026-05-07 17:28 51.34180 -0.21557 7027 ft 240 kts 271°
2026-05-07 17:28 51.34236 -0.24232 7026 ft 241 kts 271°
2026-05-07 17:28 51.34290 -0.26908 7006 ft 241 kts 271°
2026-05-07 17:29 51.34342 -0.29583 7006 ft 241 kts 271°
2026-05-07 17:29 51.34394 -0.32268 7010 ft 241 kts 271°
2026-05-07 17:29 51.34445 -0.34948 7007 ft 241 kts 271°
2026-05-07 17:29 51.34560 -0.37632 7006 ft 242 kts 275°
2026-05-07 17:30 51.34746 -0.40306 7010 ft 242 kts 276°
2026-05-07 17:30 51.34936 -0.42945 7005 ft 242 kts 276°
2026-05-07 17:30 51.35131 -0.45647 7008 ft 242 kts 276°
2026-05-07 17:30 51.35321 -0.48287 7009 ft 242 kts 276°
2026-05-07 17:31 51.35516 -0.50992 7009 ft 242 kts 276°
2026-05-07 17:31 51.35708 -0.53644 7011 ft 242 kts 276°
2026-05-07 17:31 51.35900 -0.56323 7006 ft 242 kts 276°
2026-05-07 17:31 51.36093 -0.59002 7004 ft 242 kts 276°
2026-05-07 17:32 51.36285 -0.61679 7009 ft 242 kts 276°
2026-05-07 17:32 51.36476 -0.64355 7006 ft 242 kts 276°
2026-05-07 17:32 51.36667 -0.67030 7008 ft 242 kts 276°
2026-05-07 17:32 51.36796 -0.68837 7009 ft 242 kts 276°
2026-05-07 17:33 51.37047 -0.72354 6812 ft 240 kts 276°
2026-05-07 17:33 51.37232 -0.75005 6499 ft 239 kts 276°
2026-05-07 17:33 51.37411 -0.77655 6179 ft 239 kts 276°
2026-05-07 17:33 51.37586 -0.80291 5867 ft 238 kts 276°
2026-05-07 17:34 51.37760 -0.82917 5559 ft 237 kts 276°
2026-05-07 17:34 51.37934 -0.85535 5252 ft 236 kts 276°
2026-05-07 17:34 51.38107 -0.88135 5041 ft 235 kts 276°
2026-05-07 17:34 51.38358 -0.90712 5003 ft 235 kts 282°
2026-05-07 17:35 51.38757 -0.93258 5004 ft 236 kts 285°
2026-05-07 17:35 51.39395 -0.95669 5005 ft 236 kts 299°
2026-05-07 17:35 51.40219 -0.97942 5004 ft 236 kts 301°
2026-05-07 17:35 51.41061 -1.00190 5003 ft 236 kts 302°
2026-05-07 17:36 51.42185 -1.02061 5004 ft 236 kts 330°
2026-05-07 17:36 51.43744 -1.02696 4977 ft 229 kts
2026-05-07 17:36 51.45176 -1.01891 4981 ft 215 kts 39°
2026-05-07 17:36 51.46118 -1.00058 4989 ft 214 kts 58°
2026-05-07 17:37 51.46881 -0.98017 4981 ft 214 kts 61°
2026-05-07 17:37 51.47626 -0.95956 4985 ft 214 kts 62°
2026-05-07 17:37 51.48012 -0.93708 4977 ft 212 kts 97°
2026-05-07 17:37 51.47563 -0.91462 4989 ft 213 kts 111°
2026-05-07 17:38 51.47418 -0.89133 4716 ft 212 kts 84°
2026-05-07 17:38 51.47523 -0.86782 4375 ft 211 kts 89°
2026-05-07 17:38 51.47547 -0.84456 4068 ft 210 kts 90°
2026-05-07 17:38 51.47562 -0.82110 3739 ft 209 kts 90°
2026-05-07 17:39 51.47506 -0.79787 3422 ft 207 kts 90°
2026-05-07 17:39 51.47561 -0.77545 3075 ft 197 kts 89°
2026-05-07 17:39 51.47598 -0.75397 3039 ft 190 kts 90°
2026-05-07 17:39 51.47618 -0.73337 3018 ft 180 kts 90°
2026-05-07 17:40 51.47632 -0.71345 2885 ft 177 kts 91°
2026-05-07 17:40 51.47644 -0.69396 2694 ft 171 kts 91°
2026-05-07 17:40 51.47655 -0.67517 2480 ft 167 kts 91°
2026-05-07 17:40 51.47666 -0.65669 2255 ft 166 kts 91°
2026-05-07 17:41 51.47676 -0.63826 2032 ft 165 kts 91°
2026-05-07 17:41 51.47685 -0.61990 1808 ft 165 kts 91°
2026-05-07 17:41 51.47695 -0.60152 1579 ft 165 kts 92°
2026-05-07 17:41 51.47704 -0.58315 1354 ft 164 kts 91°
2026-05-07 17:42 51.47713 -0.56484 1124 ft 164 kts 91°
2026-05-07 17:42 51.47721 -0.54664 905 ft 161 kts 92°
2026-05-07 17:42 51.47728 -0.52902 683 ft 151 kts 92°
2026-05-07 17:42 51.47740 -0.51269 469 ft 144 kts 92°
2026-05-07 17:43 51.47749 -0.49688 301 ft 139 kts 92°
2026-05-07 17:43 51.47752 -0.48160 124 ft 132 kts 94°
2026-05-07 17:43 51.47740 -0.46832 92 ft 114 kts 89°
2026-05-07 17:43 51.47744 -0.45847 83 ft 50 kts 89°
2026-05-07 17:44 51.47732 -0.45503 86 ft 17 kts 131°